Time,TemperatureF,DewpointF,PressureIn,WindDirection,WindDirectionDegrees,WindSpeedMPH,WindSpeedGustMPH,Humidity,HourlyPrecipIn,Conditions,Clouds,dailyrainin,SolarRadiationWatts/m^2,SoftwareType,DateUTC
2013-07-21 11:53:00,83.0,65.0,29.90,ESE,121,4.0,7.0,55,-99.99,,,-99.99,749.000000,,2013-07-21 15:53:00,
2013-07-21 12:01:00,82.0,65.0,29.90,ESE,111,4.0,13.0,56,-99.99,,,-99.99,744.000000,,2013-07-21 16:01:00,
2013-07-21 12:11:00,83.0,65.0,29.90,SE,124,5.0,11.0,55,-99.99,,,-99.99,805.000000,,2013-07-21 16:11:00,
2013-07-21 12:22:00,83.0,65.0,29.90,ESE,121,4.0,10.0,55,-99.99,,,-99.99,814.000000,,2013-07-21 16:22:00,
2013-07-21 12:32:00,83.0,65.0,29.90,SE,124,3.0,10.0,55,-99.99,,,-99.99,740.000000,,2013-07-21 16:32:00,
2013-07-21 12:43:00,83.0,65.0,29.89,East,86,6.0,11.0,55,-99.99,,,-99.99,875.000000,,2013-07-21 16:43:00,
2013-07-21 12:52:00,83.0,64.0,29.89,SE,129,4.0,9.0,53,-99.99,,,-99.99,853.000000,,2013-07-21 16:52:00,
2013-07-21 13:02:00,85.0,65.0,29.89,SE,128,1.0,10.0,51,-99.99,,,-99.99,722.000000,,2013-07-21 17:02:00,
2013-07-21 13:11:00,84.0,66.0,29.89,ENE,78,2.0,8.0,54,-99.99,,,-99.99,875.000000,,2013-07-21 17:11:00,
2013-07-21 13:22:00,83.0,65.0,29.89,ESE,111,5.0,11.0,55,-99.99,,,-99.99,907.000000,,2013-07-21 17:22:00,
2013-07-21 13:33:00,85.0,65.0,29.89,ESE,123,3.0,11.0,51,-99.99,,,-99.99,933.000000,,2013-07-21 17:33:00,
2013-07-21 13:43:00,85.0,64.0,29.89,East,89,1.0,7.0,49,-99.99,,,-99.99,965.000000,,2013-07-21 17:43:00,
2013-07-21 13:53:00,86.0,63.0,29.88,ESE,119,3.0,7.0,47,-99.99,,,-99.99,1016.000000,,2013-07-21 17:53:00,
2013-07-21 14:01:00,88.0,65.0,29.88,East,81,0.0,6.0,46,-99.99,,,-99.99,882.000000,,2013-07-21 18:01:00,
2013-07-21 14:11:00,87.0,63.0,29.88,ESE,113,1.0,6.0,45,-99.99,,,-99.99,914.000000,,2013-07-21 18:11:00,
2013-07-21 14:32:00,89.0,64.0,29.88,SE,130,5.0,11.0,43,-99.99,,,-99.99,942.000000,,2013-07-21 18:32:00,
2013-07-21 14:43:00,87.0,63.0,29.88,ESE,109,4.0,10.0,45,-99.99,,,-99.99,919.000000,,2013-07-21 18:43:00,
2013-07-21 14:52:00,89.0,62.0,29.87,ESE,119,0.0,10.0,41,-99.99,,,-99.99,939.000000,,2013-07-21 18:52:00,
2013-07-21 15:01:00,90.0,63.0,29.87,East,88,2.0,6.0,41,-99.99,,,-99.99,895.000000,,2013-07-21 19:01:00,
2013-07-21 15:22:00,88.0,63.0,29.86,ESE,119,3.0,8.0,44,-99.99,,,-99.99,898.000000,,2013-07-21 19:22:00,
2013-07-21 15:32:00,86.0,62.0,29.86,East,101,3.0,12.0,45,-99.99,,,-99.99,223.000000,,2013-07-21 19:32:00,
2013-07-21 15:42:00,86.0,62.0,29.86,East,101,2.0,4.0,44,-99.99,,,-99.99,577.000000,,2013-07-21 19:42:00,
2013-07-21 15:52:00,87.0,60.0,29.86,SE,144,1.0,5.0,41,-99.99,,,-99.99,664.000000,,2013-07-21 19:52:00,
2013-07-21 16:01:00,88.0,61.0,29.86,SE,145,1.0,6.0,40,-99.99,,,-99.99,492.000000,,2013-07-21 20:01:00,
2013-07-21 16:12:00,89.0,61.0,29.85,SE,133,3.0,6.0,40,-99.99,,,-99.99,554.000000,,2013-07-21 20:12:00,
2013-07-21 16:22:00,89.0,61.0,29.84,SSE,159,3.0,9.0,40,-99.99,,,-99.99,541.000000,,2013-07-21 20:22:00,
2013-07-21 16:32:00,89.0,62.0,29.84,SSE,150,1.0,7.0,41,-99.99,,,-99.99,392.000000,,2013-07-21 20:32:00,
2013-07-21 16:43:00,88.0,62.0,29.84,South,170,2.0,9.0,42,-99.99,,,-99.99,638.000000,,2013-07-21 20:43:00,
2013-07-21 16:52:00,88.0,63.0,29.84,ESE,122,2.0,9.0,44,-99.99,,,-99.99,561.000000,,2013-07-21 20:52:00,
2013-07-21 17:01:00,87.0,63.0,29.84,ESE,122,5.0,11.0,45,-99.99,,,-99.99,332.000000,,2013-07-21 21:01:00,
2013-07-21 17:11:00,87.0,63.0,29.83,ESE,123,3.0,11.0,45,-99.99,,,-99.99,417.000000,,2013-07-21 21:11:00,
2013-07-21 17:22:00,87.0,64.0,29.83,SSE,157,3.0,7.0,47,-99.99,,,-99.99,747.000000,,2013-07-21 21:22:00,
2013-07-21 17:32:00,87.0,63.0,29.83,ESE,117,3.0,10.0,45,-99.99,,,-99.99,540.000000,,2013-07-21 21:32:00,
2013-07-21 17:43:00,87.0,60.0,29.82,SE,140,2.0,10.0,41,-99.99,,,-99.99,197.000000,,2013-07-21 21:43:00,
2013-07-21 17:52:00,86.0,61.0,29.82,SE,144,0.0,5.0,43,-99.99,,,-99.99,232.000000,,2013-07-21 21:52:00,
2013-07-21 18:01:00,86.0,62.0,29.82,SSE,150,1.0,6.0,44,-99.99,,,-99.99,216.000000,,2013-07-21 22:01:00,
2013-07-21 18:11:00,85.0,62.0,29.82,SE,130,1.0,6.0,46,-99.99,,,-99.99,169.000000,,2013-07-21 22:11:00,
2013-07-21 18:22:00,85.0,64.0,29.82,SE,130,2.0,6.0,50,-99.99,,,-99.99,151.000000,,2013-07-21 22:22:00,
2013-07-21 18:32:00,84.0,64.0,29.81,SE,132,5.0,7.0,52,-99.99,,,-99.99,192.000000,,2013-07-21 22:32:00,
2013-07-21 18:43:00,84.0,65.0,29.80,SE,135,3.0,7.0,53,-99.99,,,-99.99,207.000000,,2013-07-21 22:43:00,
2013-07-21 18:52:00,84.0,66.0,29.80,SE,142,3.0,5.0,55,-99.99,,,-99.99,230.000000,,2013-07-21 22:52:00,
2013-07-21 19:02:00,84.0,66.0,29.80,SE,125,4.0,6.0,55,-99.99,,,-99.99,269.000000,,2013-07-21 23:02:00,
2013-07-21 19:11:00,84.0,67.0,29.80,SE,126,1.0,6.0,56,-99.99,,,-99.99,179.000000,,2013-07-21 23:11:00,
2013-07-21 19:22:00,84.0,66.0,29.80,SE,126,1.0,4.0,55,-99.99,,,-99.99,139.000000,,2013-07-21 23:22:00,
2013-07-21 19:32:00,84.0,67.0,29.80,SE,125,3.0,8.0,56,-99.99,,,-99.99,114.000000,,2013-07-21 23:32:00,
2013-07-21 19:42:00,83.0,67.0,29.80,SE,125,0.0,5.0,58,-99.99,,,-99.99,81.000000,,2013-07-21 23:42:00,
2013-07-21 19:52:00,83.0,67.0,29.80,SSE,151,3.0,5.0,58,-99.99,,,-99.99,79.000000,,2013-07-21 23:52:00,
2013-07-21 20:01:00,82.0,67.0,29.80,South,182,1.0,7.0,60,-99.99,,,-99.99,72.000000,,2013-07-22 00:01:00,
2013-07-21 20:11:00,82.0,67.0,29.81,South,182,3.0,5.0,61,-99.99,,,-99.99,69.000000,,2013-07-22 00:11:00,
2013-07-21 20:22:00,81.0,67.0,29.82,South,177,1.0,5.0,62,-99.99,,,-99.99,56.000000,,2013-07-22 00:22:00,
2013-07-21 20:32:00,81.0,67.0,29.82,South,177,0.0,4.0,63,-99.99,,,-99.99,51.000000,,2013-07-22 00:32:00,
2013-07-21 20:52:00,80.0,67.0,29.82,South,177,0.0,4.0,65,-99.99,,,-99.99,23.000000,,2013-07-22 00:52:00,
2013-07-21 21:02:00,80.0,67.0,29.82,South,177,0.0,1.0,65,-99.99,,,-99.99,14.000000,,2013-07-22 01:02:00,
2013-07-21 21:12:00,80.0,68.0,29.82,South,177,0.0,1.0,66,-99.99,,,-99.99,0.000000,,2013-07-22 01:12:00,
2013-07-21 21:22:00,79.0,68.0,29.82,South,177,0.0,1.0,69,-99.99,,,-99.99,0.000000,,2013-07-22 01:22:00,
2013-07-21 21:32:00,79.0,68.0,29.82,South,177,0.0,1.0,70,-99.99,,,-99.99,0.000000,,2013-07-22 01:32:00,
2013-07-21 21:42:00,79.0,69.0,29.83,South,177,0.0,1.0,71,-99.99,,,-99.99,0.000000,,2013-07-22 01:42:00,
2013-07-21 21:52:00,78.0,69.0,29.83,South,177,0.0,1.0,73,-99.99,,,-99.99,0.000000,,2013-07-22 01:52:00,
2013-07-21 22:02:00,78.0,69.0,29.83,South,177,0.0,1.0,74,-99.99,,,-99.99,0.000000,,2013-07-22 02:02:00,
2013-07-21 22:22:00,77.0,68.0,29.84,South,175,3.0,4.0,75,-99.99,,,-99.99,0.000000,,2013-07-22 02:22:00,
2013-07-21 22:32:00,77.0,69.0,29.84,South,173,1.0,4.0,76,-99.99,,,-99.99,0.000000,,2013-07-22 02:32:00,
2013-07-21 22:43:00,77.0,69.0,29.84,South,173,0.0,4.0,76,-99.99,,,-99.99,0.000000,,2013-07-22 02:43:00,
2013-07-21 22:52:00,77.0,69.0,29.84,South,172,3.0,4.0,77,-99.99,,,-99.99,0.000000,,2013-07-22 02:52:00,
2013-07-21 23:01:00,77.0,69.0,29.84,South,169,0.0,5.0,77,-99.99,,,-99.99,0.000000,,2013-07-22 03:01:00,
2013-07-21 23:12:00,77.0,70.0,29.84,South,169,0.0,3.0,78,-99.99,,,-99.99,0.000000,,2013-07-22 03:12:00,
2013-07-21 23:22:00,77.0,70.0,29.84,South,169,3.0,4.0,78,-99.99,,,-99.99,0.000000,,2013-07-22 03:22:00,
2013-07-21 23:33:00,76.0,69.0,29.84,SE,128,4.0,9.0,79,-99.99,,,-99.99,0.000000,,2013-07-22 03:33:00,
2013-07-21 23:43:00,76.0,69.0,29.83,ESE,121,3.0,9.0,79,-99.99,,,-99.99,0.000000,,2013-07-22 03:43:00,